Reus, Spain

10:58 AM CET en Enero 18, 2018 (GMT +0100)
Reus Air Base

Tiempo Historia de LERS - Enero, 2018

Change the Weather History Date:

Sábado, Enero 13, 2018

  Actual Average Record
Temperature  
Temperatura media 45 ° F -  
Temperatura máxima 55 ° F 56 ° F 66 ° F (2007)
Temperatura mínima 35 ° F 39 ° F 23 ° F (2003)
Degree Days  
Grados día de calefacción 20    
Moisture  
Punto de rocío 40 ° F    
Average Humidity 78    
Maximum Humidity 93    
Minimum Humidity 53    
Precipitación  
Precipitación 0.00 pul - - ()
Presión al nivel del mar  
Presión al nivel del mar 30.10 pul    
Viento  
Velocidad del viento 5 mph ()    
Velocidad máxima del viento 10 mph    
Max Gust Speed -    
Visibilidad 9.6 Millas    
Eventos      
Averages and records for this station are not official NWS values.
T = Trace of Precipitation, MM = Missing Value Source: Averaged Metar Reports

Daily Weather History Graph

Daily Weather History Graph

Search for Another Location

Airport or City:

Trip Planner

Search our weather history database for the weather conditions in past years. The results will help you decide how hot, cold, wet, or windy it might be!

Date:

Astronomía

Jan. 13, 2018 Salida Puesta
Hora real 8:19 AM CET 5:49 PM CET
Crepúsculo civil 7:48 AM CET 6:19 PM CET
Crepúsculo náutico 7:14 AM CET 6:53 PM CET
Crepúsculo astronómico 6:41 AM CET 7:26 PM CET
Luna 5:07 AM CET (1/13) 3:15 PM CET (1/13)
Horas de luz 10h 30m
Horas de luz
9h 29m
Creciente menguante, 11% of the Moon is Illuminated
Ene 13
Creciente menguante
Ene 17
Nueva
Ene 24
Cuarto creciente
Ene 31
Luna llena
Feb 7
Cuarto menguante

Hourly Weather History & Observations

Hora (CET) Temp. Vientos helados Punto de rocío Humedad Presión Visibilidad Wind Dir Velocidad del viento Velocidad de ráfagas Precip Eventos Condiciones
12:00 AM 41 ° F - 35 ° F 73% 30.24 pul 19 mi Norte 6.9 mph - -  
12:00 AM 41.0 ° F 36.4 ° F 35.6 ° F 81% 30.21 pul 6.2 mi NNE 6.9 mph - N/A   Desconocido
12:30 AM 39.2 ° F 33.0 ° F 35.6 ° F 87% 30.21 pul 6.2 mi NNE 9.2 mph - N/A   Desconocido
1:00 AM 40 ° F - 36 ° F 78% 30.23 pul 19 mi Norte 8.1 mph - -  
1:00 AM 41.0 ° F 36.4 ° F 35.6 ° F 81% 30.21 pul - NNE 6.9 mph - N/A   Despejado
1:30 AM 37.4 ° F - 33.8 ° F 87% 30.21 pul - Variable 2.3 mph - N/A   Despejado
2:00 AM 37.4 ° F 31.4 ° F 35.6 ° F 93% 30.18 pul 6.2 mi NNE 8.1 mph - N/A   Desconocido
2:30 AM 37.4 ° F 34.9 ° F 33.8 ° F 87% 30.18 pul 6.2 mi NNE 3.5 mph - N/A   Desconocido
3:00 AM 37.4 ° F 33.8 ° F 35.6 ° F 93% 30.18 pul 6.2 mi NNE 4.6 mph - N/A   Desconocido
3:30 AM 37.4 ° F 32.1 ° F 33.8 ° F 87% 30.18 pul 6.2 mi NNE 6.9 mph - N/A   Desconocido
4:00 AM 36 ° F - 34 ° F 88% 30.20 pul 19 mi NNE 6.9 mph - -  
4:00 AM 37.4 ° F 31.4 ° F 33.8 ° F 87% 30.18 pul 6.2 mi NNE 8.1 mph - N/A   Desconocido
4:30 AM 37.4 ° F 30.8 ° F 33.8 ° F 87% 30.15 pul 6.2 mi NNE 9.2 mph - N/A   Desconocido
5:00 AM 36 ° F - 33 ° F 87% 30.18 pul 19 mi NNE 4.6 mph - -  
5:00 AM 37.4 ° F 32.1 ° F 33.8 ° F 87% 30.15 pul 6.2 mi NNE 6.9 mph - N/A   Desconocido
5:30 AM 37.4 ° F 32.1 ° F 33.8 ° F 87% 30.15 pul 6.2 mi NNE 6.9 mph - N/A   Desconocido
6:00 AM 36 ° F - 34 ° F 88% 30.17 pul 19 mi NNE 3.5 mph - -  
6:00 AM 37.4 ° F 31.4 ° F 33.8 ° F 87% 30.15 pul 6.2 mi NNE 8.1 mph - N/A   Desconocido
6:30 AM 37.4 ° F 31.4 ° F 33.8 ° F 87% 30.15 pul 6.2 mi NNE 8.1 mph - N/A   Desconocido
7:00 AM 35.6 ° F 28.6 ° F 33.8 ° F 93% 30.12 pul - NNE 9.2 mph - N/A   Despejado
7:30 AM 37.4 ° F 30.3 ° F 33.8 ° F 87% 30.12 pul - NNE 10.4 mph - N/A   Despejado
8:00 AM 35 ° F - 33 ° F 89% 30.16 pul 19 mi NNE 3.5 mph - -  
8:00 AM 37.4 ° F 30.8 ° F 33.8 ° F 87% 30.12 pul 6.2 mi NNE 9.2 mph - N/A   Parcialmente nublado
8:30 AM 37.4 ° F 30.3 ° F 33.8 ° F 87% 30.12 pul 5.6 mi NNE 10.4 mph - N/A   Parcialmente nublado
9:00 AM 38 ° F - 34 ° F 81% 30.16 pul 19 mi Norte 6.9 mph - -  
9:00 AM 39.2 ° F 32.5 ° F 33.8 ° F 81% 30.12 pul 5.6 mi Norte 10.4 mph - N/A   Parcialmente nublado
9:30 AM 41.0 ° F 36.4 ° F 35.6 ° F 81% 30.15 pul 6.2 mi NNE 6.9 mph - N/A   Parcialmente nublado
10:00 AM 46 ° F - 38 ° F 67% 30.17 pul 6 mi NNE 5.8 mph - -   Nubes dispersas
10:00 AM 42.8 ° F 38.6 ° F 37.4 ° F 81% 30.15 pul 5.6 mi NNE 6.9 mph - N/A   Parcialmente nublado
10:30 AM 46.4 ° F 45.2 ° F 37.4 ° F 71% 30.15 pul 5.6 mi NNE 3.5 mph - N/A   Nubes dispersas
11:00 AM 51 ° F - 39 ° F 53% 30.17 pul 6 mi NNE 5.8 mph - -  
11:00 AM 51.8 ° F - 39.2 ° F 62% 30.15 pul 5.6 mi Norte 5.8 mph - N/A   Nubes dispersas
11:30 AM 51.8 ° F - 39.2 ° F 62% 30.15 pul 5.6 mi NNE 3.5 mph - N/A   Nubes dispersas
12:00 PM 54 ° F - 43 ° F 55% 30.15 pul 13 mi Norte 3.5 mph - -  
12:00 PM 53.6 ° F - 42.8 ° F 67% 30.12 pul 6.2 mi Variable 2.3 mph - N/A   Nubes dispersas
12:30 PM 55.4 ° F - 42.8 ° F 63% 30.12 pul 6.2 mi Variable 2.3 mph - N/A   Nubes dispersas
1:00 PM 55 ° F - 43 ° F 55% 30.12 pul 19 mi SSE 2.3 mph - -   Muy nublado
1:00 PM 55.4 ° F - 44.6 ° F 67% 30.12 pul 6.2 mi Variable 3.5 mph - N/A   Muy nublado
1:30 PM 53.6 ° F - 44.6 ° F 72% 30.09 pul 6.2 mi SE 3.5 mph - N/A   Muy nublado
2:00 PM 54 ° F - 44 ° F 58% 30.09 pul 19 mi Este 4.6 mph - -  
2:00 PM 55.4 ° F - 44.6 ° F 67% 30.06 pul 6.2 mi Variable 2.3 mph - N/A   Muy nublado
2:30 PM 55.4 ° F - 44.6 ° F 67% 30.06 pul 6.2 mi Variable 2.3 mph - N/A   Muy nublado
3:00 PM 55 ° F - 45 ° F 60% 30.07 pul 19 mi ESE 1.2 mph - -   Nublado
3:00 PM 55.4 ° F - 44.6 ° F 67% 30.06 pul 6.2 mi Variable 1.2 mph - N/A   Muy nublado
3:30 PM 55.4 ° F - 46.4 ° F 72% 30.04 pul 6.2 mi SE 5.8 mph - N/A   Muy nublado
4:00 PM 55 ° F - 47 ° F 66% 30.05 pul 19 mi SSO 6.9 mph - -   Nublado
4:00 PM 55.4 ° F - 48.2 ° F 77% 30.04 pul 6.2 mi SSO 5.8 mph - N/A   Muy nublado
4:30 PM 55.4 ° F - 48.2 ° F 77% 30.04 pul 6.2 mi SSO 4.6 mph - N/A   Nubes dispersas
5:00 PM 54 ° F - 47 ° F 68% 30.04 pul 19 mi SSO 5.8 mph - -  
5:00 PM 53.6 ° F - 48.2 ° F 82% 30.04 pul 6.2 mi Variable 2.3 mph - N/A   Parcialmente nublado
5:30 PM 53.6 ° F - 46.4 ° F 77% 30.01 pul 6.2 mi Variable 2.3 mph - N/A   Parcialmente nublado
6:00 PM 52 ° F - 46 ° F 75% 30.03 pul 19 mi Sur 2.3 mph - -  
6:00 PM 53.6 ° F - 48.2 ° F 82% 30.01 pul 6.2 mi Variable 1.2 mph - N/A   Parcialmente nublado
6:30 PM 50.0 ° F - 44.6 ° F 82% 30.04 pul 6.2 mi SSO 2.3 mph - N/A   Parcialmente nublado
7:00 PM 48 ° F - 43 ° F 77% 30.04 pul 19 mi Sur 3.5 mph - -   Nubes dispersas
7:00 PM 48.2 ° F - 42.8 ° F 82% 30.01 pul 6.2 mi Variable 1.2 mph - N/A   Parcialmente nublado
7:30 PM 46.4 ° F - 42.8 ° F 87% 30.01 pul 6.2 mi Sin viento Sin viento - N/A   Nubes dispersas
8:00 PM 46.4 ° F - 41.0 ° F 81% 30.01 pul 6.2 mi OSO 1.2 mph - N/A   Nubes dispersas
8:30 PM 48.2 ° F - 44.6 ° F 87% 30.01 pul 6.2 mi OSO 2.3 mph - N/A   Nubes dispersas
9:00 PM 47 ° F - 43 ° F 81% 30.02 pul 14 mi NO 3.5 mph - -  
9:00 PM 48.2 ° F - 42.8 ° F 82% 30.01 pul 6.2 mi Variable 2.3 mph - N/A   Nubes dispersas
9:30 PM 46.4 ° F - 42.8 ° F 87% 29.98 pul 6.2 mi Variable 2.3 mph - N/A   Parcialmente nublado
10:00 PM 48 ° F - 44 ° F 79% 30.00 pul 19 mi Norte 4.6 mph - -  
10:00 PM 50.0 ° F - 44.6 ° F 82% 29.98 pul 6.2 mi NNO 3.5 mph - N/A   Nubes dispersas
10:30 PM 48.2 ° F - 42.8 ° F 82% 29.98 pul 6.2 mi Variable 1.2 mph - N/A   Nubes dispersas
11:00 PM 47 ° F - 43 ° F 82% 30.00 pul 19 mi NO 4.6 mph - -  
11:00 PM 48.2 ° F - 44.6 ° F 87% 29.98 pul 6.2 mi Variable 1.2 mph - N/A   Nubes dispersas
11:30 PM 48.2 ° F - 44.6 ° F 87% 29.98 pul 6.2 mi ONO 2.3 mph - N/A   Parcialmente nublado